OBJECT C, 44854

Orbit data source: Space-Track

You're viewing an Uncataloged Satellite

Recently launched and/or uncataloged satellites may have evolving metadata. Metadata may include but not limited to: Owner, Maufacturer, Bus, Motor, and Mission.

OBJECT C, 44854 is a satellite in LEO that was launched on Wed, 11 Dec 2019 UTC via a PSLV-QL launch vehicle from the Sirharikota (SRI). Unknown objects in Earth's orbit typically refer to objects detected orbiting the Earth but have not yet been identified or cataloged. These objects could be anything from previously untracked satellites, spent rocket stages, debris from satellite collisions, or even natural meteoroids temporarily captured by Earth's gravity.

Loading next visibility...
OBJECT C details
Identifier
44854, 2019-089C
Orbit
LEO
Last TLE update17 hours ago
Origin
Flag of TBDHerzliya (TBD)
ManufacturerHerzliya
MissionOperational Amateur Imaging
Bus & MotorCUBESAT 3U, Unknown motor
Mass4 kg wet, 4 kg dry
Launch date (UTC)
2019-12-11 (5 years ago)
Launch vehicle
PSLV-QL
Launch site
Sirharikota (SRI)
Object typeUnknown
Shape & HBRBox, Unknown HBR
Radar Cross Section0.035 m², Small (<0.1 m²)

Expand to show TLE details & history

TLE from 17 hours ago
0 OBJECT C
1 44854U 19089C   24361.20352081  .00044329  00000-0  15033-2 0  9995
2 44854  36.9509 313.0087 0013096 263.5465  96.3795 15.29511639277479
Epoch: 2024-12-26T04:53Z
Definitive object data (Epoch: 2024-12-26T04:53:04.198Z)
Latitude
Longitude144.55493°
Altitude477.391 km
Speed7.629 km/s
True Right ascension20h 52m 02s
True Declination0° 00' 00"
Sunlit
Object was in daylight at TLE epoch
Visualization TLE readout
Latitude-35.38067°
Longitude30.08794°
Altitude477.951 km
Speed7.632 km/s
Apparent Right ascension11h 17m 34s
Apparent Declination-41° 50' 18"
Sunlit
Object is in daylight
Visualization observer readout
Local Sidereal Time21:02:21
Azimuth254.576° W
Elevation-64.533°
Doppler factor1
Orbital elements
Apogee altitude489.2 km
Perigee altitude471.237 km
Semi-major axis6,858.355 km
Eccentricity0.0013096
Inclination36.9509°
RAAN313.0087°
Arg. of periapsis263.5465°
True anomaly96.52861°
Mean anomaly96.3795°
Eccentric anomaly96.45406°
Mean motion3.82132 °/min
BSTAR0.0015033
Orbital period94.21 mins
Loading maneuver chart data...
Loading historical data...
Loading historical data...
Loading historical data...
Loading historical data...
Loading historical data...
Loading historical data...
Loading historical data...

OBJECT C Visibility forecast

Observer location: undefined°, undefined

Span
Click to sort rows by Start time (UTC) header in descending order
Start Az.
Max El. time (UTC)
Max El. Az.
Max El.
End time (UTC)
End Az.
5 mins2024-12-27 01:32:20.187Z215.089° SW2024-12-27 01:34:20.187Z150.953° SSE30.497°2024-12-27 01:37:20.187Z98.119° ESE
6 mins2024-12-27 03:10:20.187Z254.172° W2024-12-27 03:13:20.187Z157.896° S37.946°2024-12-27 03:16:20.187Z105.06° ESE
5 mins2024-12-27 04:50:20.187Z242.36° WSW2024-12-27 04:52:20.187Z184.14° SSW27.868°2024-12-27 04:55:20.187Z132.498° SE
|